Location: Songkhla
(7.2000°N, 100.6000°E)
Time: 04:11:26
(UTC+07:00)

First-Move - Pass Details

Date: 03 August 2021
Orbit: 576 x 665 km, 97.6° (Epoch: 15 September)

Event Time Altitude Azimuth Distance (km) Brightness Sun altitude
Rises 04:02:16 0° 32° (NNE) 2,973 ? -30.7°
Reaches altitude 10° 04:04:48 10° 45° (NE) 2,070 ? -30.1°
Maximum altitude 04:08:31 25° 100° (E) 1,324 ? -29.3°
Enters shadow 04:10:55 17° 143° (SE) 1,678 ? -28.7°
